This demonstration page uses our WeatherBlox Daily Observations layout. Learn more.

Left ArrowRight Arrow

38.88101, -77.10428

Hourly Observations for September 25, 2022

Temp ( °F °C ) Dew Point ( °F °C ) Humidity (%) Winds ( mph kmh ) Pressure ( in mb ) Visibility ( mi km ) Precip ( " mm )
12:52 am 00:52 Mostly Cloudy 61 16.1 51 10.6 70 70 SSW 3 6 29.91 1013 10 16 0.00 0.00
1:52 am 01:52 Cloudy 62 16.7 54 12.2 75 75 SSW 6 9 29.88 1012 10 16 0.00 0.00
2:52 am 02:52 Cloudy 63 17.2 53 11.7 70 70 SSW 5 7 29.87 1012 10 16 0.00 0.00
3:52 am 03:52 Mostly Cloudy 61 16.1 53 11.7 75 75 SW 3 6 29.85 1011 10 16 0.00 0.00
4:52 am 04:52 Partly Cloudy 61 16.1 53 11.7 75 75 SSW 3 6 29.84 1011 10 16 0.00 0.00
5:52 am 05:52 Mostly Cloudy 60 15.6 54 12.2 80 80 SSW 3 6 29.83 1010 10 16 0.00 0.00
6:52 am 06:52 Mostly Cloudy 60 15.6 54 12.2 80 80 SSW 6 9 29.83 1010 10 16 0.00 0.00
7:52 am 07:52 Mostly Cloudy 61 16.1 54 12.2 78 78 SSW 6 9 29.82 1010 10 16 0.00 0.00
8:52 am 08:52 Cloudy 63 17.2 55 12.8 75 75 S 9 15 29.80 1009 10 16 0.00 0.00
9:52 am 09:52 Mostly Cloudy 65 18.3 58 14.4 78 78 S 8 13 29.79 1009 10 16 0.00 0.00
10:52 am 10:52 Mostly Cloudy 68 20 56 13.3 65 65 SSW 9 15 29.78 1008 10 16 0.00 0.00
11:52 am 11:52 Mostly Cloudy 70 21.1 57 13.9 63 63 SSW 8 13 29.75 1007 10 16 0.00 0.00
12:52 pm 12:52 Mostly Cloudy 76 24.4 59 15 56 56 SSW 10 17 29.72 1006 10 16 0.00 0.00
1:52 pm 13:52 Partly Cloudy 80 26.7 59 15 49 49 SSW 17 28 29.68 1005 10 16 0.00 0.00
2:52 pm 14:52 Mostly Cloudy 79 26.1 59 15 50 50 SW 10 17 29.67 1005 10 16 0.00 0.00
3:52 pm 15:52 Mostly Cloudy 76 24.4 61 16.1 60 60 N 10 17 29.67 1005 10 16 0.00 0.00
4:01 pm 16:01 Cloudy with Thunderstorms 75 23.9 62 16.7 64 64 NNW 10 17 29.68 1005 10 16 0.01 0.13
4:29 pm 16:29 Mostly Cloudy with Thunderstorms 73 22.8 66 18.9 79 79 VRB 3 6 29.67 1005 10 16 0.01 0.25
4:36 pm 16:36 Mostly Cloudy with Nearby Thunderstorms 73 22.8 65 18.3 76 76 E 5 7 29.66 1004 10 16 0.01 0.25
4:42 pm 16:42 Mostly Cloudy 73 22.8 66 18.9 79 79 E 3 6 29.65 1004 10 16 0.01 0.25
4:52 pm 16:52 Mostly Cloudy 73 22.8 66 18.9 79 79 E 3 6 29.64 1004 10 16 0.01 0.25
5:52 pm 17:52 Mostly Cloudy 74 23.3 65 18.3 74 74 SSW 6 9 29.63 1004 10 16 0.00 0.00
6:52 pm 18:52 Partly Cloudy 75 23.9 60 15.6 60 60 SW 12 19 29.63 1003 10 16 0.00 0.00
7:52 pm 19:52 Partly Cloudy 73 22.8 55 12.8 53 53 SW 14 22 29.64 1004 10 16 0.00 0.00
8:52 pm 20:52 Mostly Cloudy 73 22.8 57 13.9 57 57 SW 8 13 29.66 1005 10 16 0.00 0.00
9:52 pm 21:52 Mostly Cloudy 70 21.1 57 13.9 63 63 WSW 9 15 29.68 1005 10 16 0.00 0.00
10:52 pm 22:52 Mostly Cloudy 70 21.1 59 15 68 68 NW 6 9 29.72 1006 10 16 0.00 0.00
11:52 pm 23:52 Partly Cloudy 66 18.9 58 14.4 75 75 SW 5 7 29.73 1007 10 16 0.00 0.00

Powered by AerisWeather